TimeMST,TemperatureF,Dew PointF,Humidity,Sea Level PressureIn,VisibilityMPH,Wind Direction,Wind SpeedMPH,Gust SpeedMPH,PrecipitationIn,Events,Conditions,WindDirDegrees,DateUTC
12:53 AM,-0.0,-2.9,88,30.03,10.0,Calm,Calm,-,0.00,,Overcast,0,2012-12-28 07:53:00
1:53 AM,1.9,-0.9,88,30.03,7.0,SSW,3.5,-,0.00,Snow,Light Snow,210,2012-12-28 08:53:00
2:53 AM,1.9,-0.9,88,30.04,10.0,Calm,Calm,-,0.00,,Overcast,0,2012-12-28 09:53:00
3:53 AM,-2.9,-5.1,90,30.08,10.0,WSW,5.8,-,N/A,,Partly Cloudy,240,2012-12-28 10:53:00
4:53 AM,1.9,-0.9,88,30.07,10.0,WSW,4.6,-,N/A,,Mostly Cloudy,250,2012-12-28 11:53:00
5:53 AM,-2.0,-4.0,91,30.14,10.0,Calm,Calm,-,N/A,,Mostly Cloudy,0,2012-12-28 12:53:00
6:53 AM,1.0,-2.0,87,30.12,6.0,Calm,Calm,-,N/A,,Mostly Cloudy,0,2012-12-28 13:53:00
7:53 AM,5.0,1.0,84,30.12,10.0,SSE,4.6,-,N/A,,Overcast,160,2012-12-28 14:53:00
8:53 AM,6.1,3.0,87,30.15,10.0,SE,5.8,-,N/A,,Overcast,140,2012-12-28 15:53:00
9:53 AM,10.0,7.0,87,30.16,10.0,ESE,3.5,-,N/A,,Mostly Cloudy,120,2012-12-28 16:53:00
10:53 AM,14.0,8.1,77,30.13,10.0,Calm,Calm,-,N/A,,Overcast,0,2012-12-28 17:53:00
11:53 AM,15.1,8.1,74,30.12,10.0,ENE,3.5,-,N/A,,Mostly Cloudy,60,2012-12-28 18:53:00
12:53 PM,16.0,7.0,68,30.11,10.0,Calm,Calm,-,N/A,,Mostly Cloudy,0,2012-12-28 19:53:00
1:53 PM,17.1,7.0,65,30.09,10.0,WNW,10.4,-,N/A,,Overcast,300,2012-12-28 20:53:00
2:53 PM,17.1,8.1,68,30.13,10.0,NW,18.4,-,N/A,,Overcast,310,2012-12-28 21:53:00
3:53 PM,15.1,7.0,70,30.19,10.0,NW,11.5,-,N/A,,Overcast,310,2012-12-28 22:53:00
4:53 PM,10.0,1.0,67,30.20,10.0,WNW,11.5,-,N/A,,Scattered Clouds,300,2012-12-28 23:53:00
5:53 PM,8.1,-0.9,67,30.25,10.0,West,13.8,-,N/A,,Clear,270,2012-12-29 00:53:00
6:53 PM,3.0,-2.9,76,30.28,10.0,West,5.8,-,N/A,,Clear,280,2012-12-29 01:53:00
7:53 PM,5.0,-2.0,73,30.25,10.0,West,5.8,-,N/A,,Clear,260,2012-12-29 02:53:00
8:53 PM,1.0,-5.1,75,30.28,10.0,WSW,9.2,-,N/A,,Clear,250,2012-12-29 03:53:00
9:53 PM,3.9,-2.9,73,30.27,10.0,WSW,9.2,-,N/A,,Clear,250,2012-12-29 04:53:00
10:53 PM,1.9,-5.1,72,30.26,10.0,SW,8.1,-,N/A,,Clear,220,2012-12-29 05:53:00
11:53 PM,3.9,-4.0,70,30.24,10.0,SW,18.4,-,N/A,,Clear,220,2012-12-29 06:53:00